Regional Weather Roundup
Issued by NWS

Home | Current Version | Previous Version | Text Only | Print | Product List | Glossary Off
Versions: 1 2 3 4 5 6 7 8 9 10 11 12 13 14 15 16 17 18 19 20 21 22 23 24 25 26 27 28 29 30 31 32 33 34 35 36 37 38 39 40 41 42 43 44 45 46 47 48 49 50

000
ASUS43 KDTX 111601
RWRMI
MICHIGAN HOURLY REGIONAL WEATHER ROUNDUP
NATIONAL WEATHER SERVICE DETROIT/PONTIAC MI
1100 AM EST THU FEB 11 2016

NOTE: "FAIR" INDICATES FEW OR NO CLOUDS BELOW 12,000 FEET WITH NO
SIGNIFICANT WEATHER AND/OR OBSTRUCTION TO VISIBILITY.

MIZ047>049-052>055-059>063-066>070-074>076-081>083-111700-
SOUTHEAST LOWER MICHIGAN

CITY           SKY/WX    TMP DP  RH WIND       PRES   REMARKS
ADRIAN         PTSUNNY   18   1  47 NW16G23   30.21R WCI   3
ALMA           PTSUNNY   18   9  68 NW9G16    30.20R WCI   6
ANN ARBOR      CLOUDY    16   4  59 N13       30.19R WCI   2
BAD AXE        CLOUDY    10   2  73 NW16      30.17R WCI  -8
CARO           CLOUDY    10   1  67 N10       30.19R WCI  -3
DETROIT CITY   PTSUNNY   16   4  59 NW9       30.19R WCI   4
DETROIT        PTSUNNY   16   5  62 NW15G22   30.21R WCI   1
FLINT          PTSUNNY   16   5  62 NW9       30.19R WCI   4
GROSSE ILE     CLOUDY    18   7  62 NW14      30.20R WCI   4
HILLSDALE      CLOUDY    17   2  50 NW13G18   30.18R WCI   4
HOWELL         CLOUDY    15   7  68 NW10G16   30.18R WCI   3

CITY           SKY/WX    TMP DP  RH WIND       PRES   REMARKS
JACKSON        CLOUDY    17   0  47 NW13G29   30.19R WCI   4
LAMBERTVILLE   SUNNY     19   4  52 W8G16     30.22S WCI   9
LANSING        PTSUNNY   18   4  54 NW14      30.20R WCI   4
LAPEER         CLOUDY    12   6  74 N9        30.17R HAZE    WCI   0
MASON          PTSUNNY   17   4  55 NW15G22   30.18S WCI   2
MONROE         PTSUNNY   19   5  55 NW14      30.20S WCI   5
MT. CLEMENS    PTSUNNY   15   6  68 NW12      30.17R WCI   1
PONTIAC        PTSUNNY   13   4  67 N13       30.16R WCI  -2
PORT HOPE        N/A     12   4  70 NW15G25   30.14R WCI  -4
PORT HURON     MOSUNNY   12   1  62 NW15G21   30.18R WCI  -4
TRI CITIES     CLOUDY    15   3  59 NW14      30.20R WCI   0
MIDLAND        CLOUDY    15   2  58 N12G17    30.20R WCI   1
TROY           PTSUNNY   16   6  64 W14G20    30.20R WCI   2
SAGINAW HB     PTSUNNY   14   7  73 N7        30.21R WCI   4
$$
MIZ043>046-050>051-056>058-064>065-071>073-077>080-111700-
SOUTHWEST LOWER MICHIGAN

CITY           SKY/WX    TMP DP  RH WIND       PRES   REMARKS
BATTLE CREEK   PTSUNNY   18   6  59 VRB6      30.22R WCI  10
BENTON HARBOR  FLURRIES  20  10  65 NW10      30.25S WCI   9
BIG RAPIDS     CLOUDY    17   3  55 NW9       30.17R WCI   5
COLDWATER      CLOUDY    18   6  59 W5        30.22R WCI  11
FREMONT        CLOUDY    19   4  53 N10G16    30.21R WCI   7
HOLLAND        PTSUNNY   20   8  60 VRB6      30.24R WCI  12
GRAND RAPIDS   PTSUNNY   19   3  49 NW9       30.21R WCI   8
IONIA          CLOUDY    18   4  54 NW12G17   30.19R WCI   5
KALAMAZOO      CLOUDY    17   7  64 NW6       30.23R WCI   9
LUDINGTON      CLOUDY    17   8  67 NW8       30.23R WCI   7
MARSHALL       MOSUNNY   19   3  51 NW9G17    30.21R WCI   8
MOUNT PLEASANT PTSUNNY   17   7  66 W5        30.19R WCI   9
MUSKEGON       PTSUNNY   20   8  60 N10       30.24R WCI   9
SOUTH HAVEN    FLURRIES  17  12  82 E5        30.25R WCI  10
$$
MIZ016>042-111700-
NORTHERN LOWER MICHIGAN

CITY           SKY/WX    TMP DP  RH WIND       PRES   REMARKS
ALPENA         LGT SNOW   7  -1  70 W12       30.17R WCI  -8
BEAVER ISLAND  CLOUDY    12   5  71 NW6       30.18S WCI   3
BELLAIRE       CLOUDY    15   4  64 NE9       30.19S WCI   3
CADILLAC       CLOUDY    14   5  68 NW13      30.12R WCI   0
CHARLEVOIX     CLOUDY    13   6  73 N3        30.20S
FRANKFORT      LGT SNOW  17  10  73 NW9       30.20R WCI   6
GRAYLING       CLOUDY    10   2  69 NW10      30.14S HAZE    WCI  -4
HARBOR SPRINGS MOSUNNY   10  -2  58 E5        30.17F WCI   1
HOUGHTON LAKE  CLOUDY    11   2  67 N10       30.14R WCI  -3
MANISTEE       CLOUDY    18   3  53 NW12G17   30.21R WCI   5
OSCODA         MOSUNNY    8  -3  61 NW15      30.17R WCI  -9
PELLSTON       SUNNY      9  -1  64 N5        30.18S WCI   1
ROGERS CITY    LGT SNOW   7   1  75 NW14G20   30.18R WCI -10
TRAVERSE CITY  LGT SNOW  16   9  74 NW8       30.18R WCI   5
$$
MIZ007>008-015-111700-
EASTERN UPPER MICHIGAN

CITY           SKY/WX    TMP DP  RH WIND       PRES   REMARKS
KINROSS        CLOUDY    -2  -6  84 SE5       30.16S WCI -12
MACKINAC ISLAN SUNNY      7   0  72 CALM      30.15F
NEWBERRY       LGT SNOW   7   1  75 CALM      30.13S
S. S. MARIE    SUNNY     -1 -12  59 CALM      30.16S
$$
MIZ004>006-011>014-085-111700-
CENTRAL UPPER MICHIGAN

CITY           SKY/WX    TMP DP  RH WIND       PRES   REMARKS
MANISTIQUE     MOSUNNY   13   5  70 W10       30.16F WCI   0
ESCANABA       SUNNY     12   0  57 NW14      30.20R WCI  -3
MENOMINEE      SUNNY     10  -2  56 NW5       30.24S WCI   2
SAWYER-GWINN   MOSUNNY    7   0  72 NW15      30.14S WCI -11
$$
MIZ001>003-009>011-084-111700-
WESTERN UPPER MICHIGAN

CITY           SKY/WX    TMP DP  RH WIND       PRES   REMARKS
IRON MOUNTAIN  SUNNY     10  -1  61 NW15G21   30.16S WCI  -7
HOUGHTON       LGT SNOW   9   1  70 NW16      30.15R WCI  -8
COPPER HARBOR    N/A     12   3  67 N21G28    30.17S WCI  -7
IRONWOOD       CLOUDY     3   1  92 SW8       30.19S WCI -10
$$

ABBREVIATIONS USED IN REMARKS
   TC - TEMPERATURE IN CELSIUS
  WCI - WIND CHILL INDEX
   HX - HEAT INDEX
  VSB - VISIBILITY




USA.gov is the U.S. government's official web portal to all federal, state and local government web resources and services.